,,,PA_Meas_PMT16A,,PR_Meas_QMR101_102,,RH_Meas_QMH101,,SR_Meas_QMS101,,TA_Meas_QMH101,,GenWind,,GenWind,
date,time,status,PA,status,PR,status,RH,status,SR,status,TA,status,DirAvg,status,SpdAvg,
2010-07-08, 00:00:04,VALID,1010.52,VALID,0,VALID,101.552,VALID,0,VALID,24.842,VALID,163,VALID,0.561719,
2010-07-08, 00:01:04,VALID,1010.54,VALID,0,VALID,101.537,VALID,0,VALID,24.842,VALID,159,VALID,0.457422,
2010-07-08, 00:02:04,VALID,1010.54,VALID,0,VALID,101.545,VALID,0,VALID,24.8225,VALID,159,VALID,0.451953,
2010-07-08, 00:03:04,VALID,1010.53,VALID,0,VALID,101.43,VALID,0.105969,VALID,24.803,VALID,146,VALID,0.0503906,
2010-07-08, 00:04:04,VALID,1010.54,VALID,0,VALID,101.423,VALID,0,VALID,24.8225,VALID,146,VALID,0,
2010-07-08, 00:05:04,VALID,1010.49,VALID,0,VALID,101.4,VALID,0,VALID,24.803,VALID,146,VALID,0,
2010-07-08, 00:06:04,VALID,1010.47,VALID,0,VALID,101.354,VALID,0.105969,VALID,24.803,VALID,146,VALID,0,
2010-07-08, 00:07:04,VALID,1010.45,VALID,0,VALID,101.407,VALID,0,VALID,24.8438,VALID,146,VALID,0,
2010-07-08, 00:08:04,VALID,1010.41,VALID,0,VALID,101.346,VALID,0,VALID,24.803,VALID,146,VALID,0,
2010-07-08, 00:09:04,VALID,1010.4,VALID,0,VALID,101.27,VALID,0,VALID,24.8244,VALID,146,VALID,0,
2010-07-08, 00:10:04,VALID,1010.41,VALID,0,VALID,101.247,VALID,0,VALID,24.8244,VALID,146,VALID,0,
2010-07-08, 00:11:04,VALID,1010.44,VALID,0,VALID,101.133,VALID,0,VALID,24.803,VALID,146,VALID,0.0585938,
2010-07-08, 00:12:04,VALID,1010.42,VALID,0,VALID,101.056,VALID,0,VALID,24.8244,VALID,146,VALID,0,
2010-07-08, 00:13:04,VALID,1010.44,VALID,0,VALID,100.98,VALID,0,VALID,24.8049,VALID,146,VALID,0,
2010-07-08, 00:14:04,VALID,1010.45,VALID,0,VALID,100.919,VALID,0,VALID,24.803,VALID,146,VALID,0,
2010-07-08, 00:15:04,VALID,1010.4,VALID,0,VALID,100.889,VALID,0,VALID,24.8244,VALID,146,VALID,0,
2010-07-08, 00:16:04,VALID,1010.4,VALID,0,VALID,100.95,VALID,0,VALID,24.8438,VALID,146,VALID,0,
2010-07-08, 00:17:04,VALID,1010.37,VALID,0,VALID,100.995,VALID,0,VALID,24.8225,VALID,146,VALID,0,
2010-07-08, 00:18:04,VALID,1010.31,VALID,0,VALID,101.049,VALID,0,VALID,24.8225,VALID,146,VALID,0,
2010-07-08, 00:19:04,VALID,1010.28,VALID,0,VALID,101.247,VALID,0,VALID,24.8225,VALID,5,VALID,0.511719,
2010-07-08, 00:20:04,VALID,1010.27,VALID,0,VALID,101.407,VALID,0.105969,VALID,24.803,VALID,5,VALID,0.560547,
2010-07-08, 00:21:04,VALID,1010.23,VALID,0,VALID,101.461,VALID,0.105969,VALID,24.7835,VALID,5,VALID,0.592188,
2010-07-08, 00:22:04,VALID,1010.25,VALID,0,VALID,101.529,VALID,0.105969,VALID,24.7854,VALID,10,VALID,0.623438,
2010-07-08, 00:23:04,VALID,1010.23,VALID,0,VALID,101.613,VALID,0,VALID,24.725,VALID,17,VALID,0.454297,
2010-07-08, 00:24:04,VALID,1010.23,VALID,0,VALID,101.682,VALID,0.105969,VALID,24.7055,VALID,17,VALID,0.315625,
2010-07-08, 00:25:04,VALID,1010.2,VALID,0,VALID,101.75,VALID,0.105969,VALID,24.6666,VALID,45,VALID,0.592578,
2010-07-08, 00:26:04,VALID,1010.19,VALID,0,VALID,101.789,VALID,0,VALID,24.6471,VALID,43,VALID,0.411719,
2010-07-08, 00:27:04,VALID,1010.17,VALID,0,VALID,101.827,VALID,0,VALID,24.6489,VALID,43,VALID,0.242969,
2010-07-08, 00:28:04,VALID,1010.16,VALID,0,VALID,101.911,VALID,0,VALID,24.6081,VALID,22,VALID,0.505469,
2010-07-08, 00:29:04,VALID,1010.16,VALID,0,VALID,101.956,VALID,0,VALID,24.5886,VALID,42,VALID,0.100781,
2010-07-08, 00:30:04,VALID,1010.18,VALID,0,VALID,101.994,VALID,0,VALID,24.5905,VALID,54,VALID,0.496094,
2010-07-08, 00:31:04,VALID,1010.19,VALID,0,VALID,102.048,VALID,0,VALID,24.5886,VALID,77,VALID,0.354297,
2010-07-08, 00:32:04,VALID,1010.21,VALID,0,VALID,102.139,VALID,0.105969,VALID,24.5886,VALID,98,VALID,0.491406,
2010-07-08, 00:33:04,VALID,1010.23,VALID,0,VALID,102.2,VALID,0,VALID,24.6294,VALID,99,VALID,0.776953,
2010-07-08, 00:34:04,VALID,1010.24,VALID,0,VALID,102.277,VALID,0.105969,VALID,24.6276,VALID,89,VALID,1.07187,
2010-07-08, 00:35:04,VALID,1010.25,VALID,0,VALID,102.269,VALID,0,VALID,24.6666,VALID,70,VALID,0.581641,
2010-07-08, 00:36:04,VALID,1010.25,VALID,0,VALID,102.269,VALID,0.105969,VALID,24.686,VALID,76,VALID,0.757031,
2010-07-08, 00:37:04,VALID,1010.27,VALID,0,VALID,102.231,VALID,0.105969,VALID,24.7055,VALID,71,VALID,0.91875,
2010-07-08, 00:38:04,VALID,1010.27,VALID,0,VALID,102.116,VALID,0.105969,VALID,24.725,VALID,44,VALID,0.626953,
2010-07-08, 00:39:04,VALID,1010.3,VALID,0,VALID,102.01,VALID,0.105969,VALID,24.7445,VALID,70,VALID,1.09219,
2010-07-08, 00:40:04,VALID,1010.33,VALID,0,VALID,101.941,VALID,0.105969,VALID,24.7445,VALID,81,VALID,1.17969,
2010-07-08, 00:41:04,VALID,1010.35,VALID,0,VALID,101.834,VALID,0.105969,VALID,24.7445,VALID,83,VALID,0.931641,
2010-07-08, 00:42:04,VALID,1010.36,VALID,0,VALID,101.804,VALID,0.105969,VALID,24.7445,VALID,65,VALID,0.957812,
2010-07-08, 00:43:04,VALID,1010.36,VALID,0,VALID,101.72,VALID,0.105969,VALID,24.7445,VALID,73,VALID,1.02266,
2010-07-08, 00:44:04,VALID,1010.36,VALID,0,VALID,101.621,VALID,0.105969,VALID,24.725,VALID,62,VALID,0.365625,
2010-07-08, 00:45:04,VALID,1010.35,VALID,0,VALID,101.506,VALID,0,VALID,24.7464,VALID,81,VALID,0.495703,
2010-07-08, 00:46:04,VALID,1010.29,VALID,0,VALID,101.453,VALID,0.105969,VALID,24.725,VALID,80,VALID,0.707422,
2010-07-08, 00:47:04,VALID,1010.27,VALID,0,VALID,101.255,VALID,0.105969,VALID,24.7055,VALID,28,VALID,0.965625,
2010-07-08, 00:48:04,VALID,1010.25,VALID,0,VALID,101.186,VALID,0.105969,VALID,24.7055,VALID,73,VALID,0.957031,
2010-07-08, 00:49:04,VALID,1010.21,VALID,0,VALID,101.079,VALID,0.105969,VALID,24.686,VALID,79,VALID,1.21953,
2010-07-08, 00:50:04,VALID,1010.21,VALID,0,VALID,101.026,VALID,0,VALID,24.7055,VALID,10,VALID,0.591406,
2010-07-08, 00:51:04,VALID,1010.22,VALID,0,VALID,100.98,VALID,0,VALID,24.7074,VALID,79,VALID,0.856641,
2010-07-08, 00:52:04,VALID,1010.2,VALID,0,VALID,100.896,VALID,0.105969,VALID,24.686,VALID,89,VALID,0.887891,
2010-07-08, 00:53:04,VALID,1010.22,VALID,0,VALID,100.873,VALID,0,VALID,24.686,VALID,87,VALID,0.309766,
2010-07-08, 00:54:04,VALID,1010.22,VALID,0,VALID,100.934,VALID,0.105969,VALID,24.6452,VALID,87,VALID,0.521484,
2010-07-08, 00:55:04,VALID,1010.24,VALID,0,VALID,100.942,VALID,0.105969,VALID,24.6666,VALID,89,VALID,0.645703,
2010-07-08, 00:56:04,VALID,1010.28,VALID,0,VALID,100.957,VALID,0,VALID,24.6471,VALID,61,VALID,0.736719,
2010-07-08, 00:57:04,VALID,1010.27,VALID,0,VALID,100.896,VALID,0.105969,VALID,24.6471,VALID,76,VALID,0.803906,
2010-07-08, 00:58:04,VALID,1010.3,VALID,0,VALID,100.881,VALID,0,VALID,24.6471,VALID,77,VALID,0.677734,
2010-07-08, 00:59:04,VALID,1010.32,VALID,0,VALID,100.851,VALID,0,VALID,24.6471,VALID,80,VALID,0.675,
2010-07-08, 01:00:04,VALID,1010.33,VALID,0,VALID,100.812,VALID,0.105969,VALID,24.6684,VALID,66,VALID,0.462891,
2010-07-08, 01:01:04,VALID,1010.33,VALID,0,VALID,100.843,VALID,0.105969,VALID,24.6471,VALID,69,VALID,0.565625,
2010-07-08, 01:02:04,VALID,1010.33,VALID,0,VALID,100.828,VALID,0,VALID,24.6471,VALID,66,VALID,0.612109,
2010-07-08, 01:03:04,VALID,1010.31,VALID,0,VALID,100.797,VALID,0.105969,VALID,24.6471,VALID,65,VALID,0.547656,
2010-07-08, 01:04:04,VALID,1010.31,VALID,0,VALID,100.835,VALID,0,VALID,24.6471,VALID,81,VALID,0.347266,
2010-07-08, 01:05:04,VALID,1010.28,VALID,0,VALID,100.858,VALID,0.105969,VALID,24.6471,VALID,50,VALID,0.507422,
2010-07-08, 01:06:04,VALID,1010.25,VALID,0,VALID,100.881,VALID,0.105969,VALID,24.6666,VALID,56,VALID,0.348828,
2010-07-08, 01:07:04,VALID,1010.25,VALID,0,VALID,100.858,VALID,0,VALID,24.6471,VALID,68,VALID,0.557422,
2010-07-08, 01:08:04,VALID,1010.23,VALID,0,VALID,100.782,VALID,0,VALID,24.6471,VALID,62,VALID,0.366797,
2010-07-08, 01:09:04,VALID,1010.23,VALID,0,VALID,100.79,VALID,0,VALID,24.6666,VALID,62,VALID,0.281641,
2010-07-08, 01:10:04,VALID,1010.21,VALID,0,VALID,100.904,VALID,0,VALID,24.6666,VALID,34,VALID,0.361328,
2010-07-08, 01:11:04,VALID,1010.19,VALID,0,VALID,100.904,VALID,0,VALID,24.6666,VALID,34,VALID,0,
2010-07-08, 01:12:04,VALID,1010.17,VALID,0,VALID,100.896,VALID,0,VALID,24.6684,VALID,34,VALID,0.252734,
2010-07-08, 01:13:04,VALID,1010.16,VALID,0,VALID,100.927,VALID,0.105969,VALID,24.6471,VALID,34,VALID,0.341406,
2010-07-08, 01:14:04,VALID,1010.16,VALID,0,VALID,100.927,VALID,0,VALID,24.6684,VALID,30,VALID,0.294141,
2010-07-08, 01:15:04,VALID,1010.14,VALID,0,VALID,100.942,VALID,0.105969,VALID,24.6471,VALID,11,VALID,0.228906,
2010-07-08, 01:16:04,VALID,1010.14,VALID,0,VALID,100.995,VALID,0.105969,VALID,24.6276,VALID,7,VALID,0.202734,
2010-07-08, 01:17:04,VALID,1010.14,VALID,0,VALID,101.14,VALID,0.105969,VALID,24.6276,VALID,7,VALID,0.246484,
2010-07-08, 01:18:04,VALID,1010.13,VALID,0,VALID,101.209,VALID,0.105969,VALID,24.6081,VALID,7,VALID,0.343359,
2010-07-08, 01:19:04,VALID,1010.09,VALID,0,VALID,101.308,VALID,0,VALID,24.6081,VALID,7,VALID,0.220703,
2010-07-08, 01:20:04,VALID,1010.08,VALID,0,VALID,101.384,VALID,0.105969,VALID,24.5886,VALID,7,VALID,0.0246094,
2010-07-08, 01:21:04,VALID,1010.06,VALID,0,VALID,101.407,VALID,0.105969,VALID,24.5905,VALID,7,VALID,0,
2010-07-08, 01:22:04,VALID,1010.05,VALID,0,VALID,101.445,VALID,0.105969,VALID,24.5905,VALID,7,VALID,0,
2010-07-08, 01:23:04,VALID,1010.05,VALID,0,VALID,101.491,VALID,0,VALID,24.5515,VALID,7,VALID,0.249609,
2010-07-08, 01:24:04,VALID,1010.07,VALID,0,VALID,101.522,VALID,0,VALID,24.5106,VALID,24,VALID,0.335938,
2010-07-08, 01:25:04,VALID,1010.07,VALID,0,VALID,101.613,VALID,0.105969,VALID,24.532,VALID,46,VALID,0.330469,
2010-07-08, 01:26:04,VALID,1010.06,VALID,0,VALID,101.682,VALID,0,VALID,24.5106,VALID,74,VALID,0.628906,
2010-07-08, 01:27:04,VALID,1010.08,VALID,0,VALID,101.667,VALID,0,VALID,24.5125,VALID,80,VALID,0.611328,
2010-07-08, 01:28:04,VALID,1010.09,VALID,0,VALID,101.697,VALID,0,VALID,24.5106,VALID,60,VALID,0.746484,
2010-07-08, 01:29:04,VALID,1010.11,VALID,0,VALID,101.613,VALID,0,VALID,24.5301,VALID,86,VALID,1.12695,
2010-07-08, 01:30:04,VALID,1010.1,VALID,0,VALID,101.484,VALID,0.105969,VALID,24.5515,VALID,77,VALID,1.03203,
2010-07-08, 01:31:04,VALID,1010.09,VALID,0,VALID,101.392,VALID,0,VALID,24.571,VALID,67,VALID,0.457031,
2010-07-08, 01:32:04,VALID,1010.08,VALID,0,VALID,101.331,VALID,0,VALID,24.5691,VALID,57,VALID,1.37266,
2010-07-08, 01:33:04,VALID,1010.07,VALID,0,VALID,101.102,VALID,0,VALID,24.5691,VALID,47,VALID,1.03633,
2010-07-08, 01:34:04,VALID,1010.03,VALID,0,VALID,100.965,VALID,0,VALID,24.6099,VALID,101,VALID,1.07109,
2010-07-08, 01:35:04,VALID,1010.03,VALID,0,VALID,100.881,VALID,0,VALID,24.6294,VALID,90,VALID,0.9125,
2010-07-08, 01:36:04,VALID,1010.03,VALID,0,VALID,100.851,VALID,0,VALID,24.6489,VALID,69,VALID,0.608984,
2010-07-08, 01:37:04,VALID,1010.03,VALID,0,VALID,100.828,VALID,0,VALID,24.6489,VALID,76,VALID,0.780469,
2010-07-08, 01:38:04,VALID,1010.01,VALID,0,VALID,100.812,VALID,0,VALID,24.6294,VALID,50,VALID,0.727344,
2010-07-08, 01:39:04,VALID,1010,VALID,0,VALID,100.851,VALID,0.105969,VALID,24.6294,VALID,58,VALID,0.353906,
2010-07-08, 01:40:04,VALID,1010,VALID,0,VALID,100.896,VALID,0,VALID,24.6081,VALID,75,VALID,0.503906,
2010-07-08, 01:41:04,VALID,1009.96,VALID,0,VALID,100.881,VALID,0.105969,VALID,24.6081,VALID,87,VALID,0.457812,
2010-07-08, 01:42:04,VALID,1009.92,VALID,0,VALID,100.782,VALID,0,VALID,24.6099,VALID,79,VALID,0.358594,
2010-07-08, 01:43:04,VALID,1009.9,VALID,0,VALID,100.721,VALID,0,VALID,24.6294,VALID,81,VALID,0.889063,
2010-07-08, 01:44:04,VALID,1009.89,VALID,0,VALID,100.668,VALID,0,VALID,24.6294,VALID,65,VALID,1.06797,
2010-07-08, 01:45:04,VALID,1009.84,VALID,0,VALID,100.599,VALID,0.105969,VALID,24.6294,VALID,85,VALID,0.921875,
2010-07-08, 01:46:04,VALID,1009.83,VALID,0,VALID,100.599,VALID,0,VALID,24.6081,VALID,84,VALID,1.07852,
2010-07-08, 01:47:04,VALID,1009.83,VALID,0,VALID,100.683,VALID,0,VALID,24.6081,VALID,72,VALID,1.03164,
2010-07-08, 01:48:05,VALID,1009.82,VALID,0,VALID,100.66,VALID,0,VALID,24.6294,VALID,66,VALID,1.05664,
2010-07-08, 01:49:05,VALID,1009.81,VALID,0,VALID,100.637,VALID,0,VALID,24.6081,VALID,42,VALID,0.715234,
2010-07-08, 01:50:05,VALID,1009.82,VALID,0,VALID,100.713,VALID,0,VALID,24.6099,VALID,102,VALID,0.933984,
2010-07-08, 01:51:05,VALID,1009.82,VALID,0,VALID,100.782,VALID,0,VALID,24.6099,VALID,56,VALID,0.651172,
2010-07-08, 01:52:05,VALID,1009.82,VALID,0,VALID,100.782,VALID,0,VALID,24.6099,VALID,98,VALID,0.616797,
2010-07-08, 01:53:05,VALID,1009.82,VALID,0,VALID,100.828,VALID,0,VALID,24.5905,VALID,84,VALID,0.725,
2010-07-08, 01:54:05,VALID,1009.82,VALID,0,VALID,100.873,VALID,0,VALID,24.5905,VALID,91,VALID,0.980078,
2010-07-08, 01:55:05,VALID,1009.82,VALID,0,VALID,100.927,VALID,0.105969,VALID,24.6099,VALID,90,VALID,0.592578,
2010-07-08, 01:56:05,VALID,1009.78,VALID,0,VALID,100.843,VALID,0,VALID,24.5905,VALID,95,VALID,1.3375,
2010-07-08, 01:57:05,VALID,1009.78,VALID,0,VALID,100.744,VALID,0,VALID,24.6099,VALID,89,VALID,1.0168,
2010-07-08, 01:58:05,VALID,1009.76,VALID,0,VALID,100.69,VALID,0,VALID,24.6099,VALID,103,VALID,1.17617,
2010-07-08, 01:59:05,VALID,1009.73,VALID,0,VALID,100.515,VALID,0,VALID,24.6099,VALID,91,VALID,0.613281,
2010-07-08, 02:00:05,VALID,1009.73,VALID,0,VALID,100.492,VALID,0,VALID,24.6099,VALID,98,VALID,1.03281,
2010-07-08, 02:01:05,VALID,1009.74,VALID,0,VALID,100.408,VALID,0,VALID,24.6099,VALID,92,VALID,1.33203,
2010-07-08, 02:02:05,VALID,1009.72,VALID,0,VALID,100.241,VALID,0,VALID,24.6294,VALID,83,VALID,1.08789,
2010-07-08, 02:03:05,VALID,1009.71,VALID,0,VALID,100.355,VALID,0,VALID,24.6294,VALID,65,VALID,0.38125,
2010-07-08, 02:04:05,VALID,1009.71,VALID,0,VALID,100.302,VALID,0,VALID,24.6081,VALID,89,VALID,0.631641,
2010-07-08, 02:05:05,VALID,1009.69,VALID,0,VALID,100.355,VALID,0,VALID,24.6081,VALID,44,VALID,0.667578,
2010-07-08, 02:06:05,VALID,1009.69,VALID,0,VALID,100.347,VALID,0,VALID,24.5886,VALID,63,VALID,0.525391,
2010-07-08, 02:07:05,VALID,1009.67,VALID,0,VALID,100.385,VALID,0,VALID,24.5886,VALID,69,VALID,0.360547,
2010-07-08, 02:08:05,VALID,1009.64,VALID,0,VALID,100.416,VALID,0,VALID,24.5905,VALID,62,VALID,0.40625,
2010-07-08, 02:09:05,VALID,1009.59,VALID,0,VALID,100.431,VALID,0,VALID,24.5905,VALID,62,VALID,0.362891,
2010-07-08, 02:10:05,VALID,1009.57,VALID,0,VALID,100.446,VALID,0,VALID,24.5905,VALID,67,VALID,1.13516,
2010-07-08, 02:11:05,VALID,1009.54,VALID,0,VALID,100.363,VALID,0.105969,VALID,24.5691,VALID,73,VALID,0.714844,
2010-07-08, 02:12:05,VALID,1009.52,VALID,0,VALID,100.34,VALID,0,VALID,24.5496,VALID,60,VALID,0.889453,
2010-07-08, 02:13:05,VALID,1009.47,VALID,0,VALID,100.439,VALID,0,VALID,24.571,VALID,69,VALID,0.505469,
2010-07-08, 02:14:05,VALID,1009.44,VALID,0,VALID,100.347,VALID,0.105969,VALID,24.5515,VALID,102,VALID,1.12969,
2010-07-08, 02:15:05,VALID,1009.4,VALID,0,VALID,100.332,VALID,0,VALID,24.5515,VALID,71,VALID,0.735156,
2010-07-08, 02:16:05,VALID,1009.34,VALID,0,VALID,100.225,VALID,0,VALID,24.5106,VALID,65,VALID,1.30469,
2010-07-08, 02:17:05,VALID,1009.33,VALID,0,VALID,100.134,VALID,0,VALID,24.532,VALID,60,VALID,0.683594,
2010-07-08, 02:18:05,VALID,1009.29,VALID,0,VALID,100.149,VALID,0.105969,VALID,24.5106,VALID,48,VALID,0.405469,
2010-07-08, 02:19:05,VALID,1009.27,VALID,0,VALID,100.096,VALID,0,VALID,24.532,VALID,66,VALID,0.838672,
2010-07-08, 02:20:05,VALID,1009.26,VALID,0,VALID,99.9813,VALID,0,VALID,24.5301,VALID,49,VALID,0.767578,
2010-07-08, 02:21:05,VALID,1009.26,VALID,0,VALID,99.9736,VALID,0,VALID,24.5515,VALID,29,VALID,0.310156,
2010-07-08, 02:22:05,VALID,1009.24,VALID,0,VALID,100.004,VALID,0,VALID,24.5515,VALID,90,VALID,0.212109,
2010-07-08, 02:23:05,VALID,1009.24,VALID,0,VALID,99.9355,VALID,0.105969,VALID,24.5301,VALID,82,VALID,0.395703,
2010-07-08, 02:24:05,VALID,1009.22,VALID,0,VALID,99.8364,VALID,0.105969,VALID,24.5515,VALID,73,VALID,0.844141,
2010-07-08, 02:25:05,VALID,1009.22,VALID,0,VALID,99.9279,VALID,0,VALID,24.5496,VALID,74,VALID,0.0496094,
2010-07-08, 02:26:05,VALID,1009.22,VALID,0,VALID,100.073,VALID,0,VALID,24.571,VALID,74,VALID,0,
2010-07-08, 02:27:05,VALID,1009.19,VALID,0,VALID,100.225,VALID,0,VALID,24.571,VALID,73,VALID,0,
2010-07-08, 02:28:05,VALID,1009.18,VALID,0,VALID,100.263,VALID,0.105969,VALID,24.5496,VALID,74,VALID,0,
2010-07-08, 02:29:05,VALID,1009.14,VALID,0,VALID,100.279,VALID,0,VALID,24.5515,VALID,74,VALID,0,
2010-07-08, 02:30:05,VALID,1009.12,VALID,0,VALID,100.119,VALID,0,VALID,24.5301,VALID,73,VALID,0,
2010-07-08, 02:31:05,VALID,1009.09,VALID,0,VALID,100.202,VALID,0,VALID,24.5496,VALID,74,VALID,0,
2010-07-08, 02:32:05,VALID,1009.07,VALID,0,VALID,100.141,VALID,0,VALID,24.532,VALID,62,VALID,0.542188,
2010-07-08, 02:33:05,VALID,1009.06,VALID,0,VALID,100.103,VALID,0.105969,VALID,24.5515,VALID,54,VALID,0.321875,
2010-07-08, 02:34:05,VALID,1009.07,VALID,0,VALID,100.172,VALID,0,VALID,24.5515,VALID,54,VALID,0.135547,
2010-07-08, 02:35:05,VALID,1009.07,VALID,0,VALID,100.408,VALID,0,VALID,24.5515,VALID,54,VALID,0,
2010-07-08, 02:36:05,VALID,1009.07,VALID,0,VALID,100.492,VALID,0,VALID,24.5515,VALID,54,VALID,0,
2010-07-08, 02:37:05,VALID,1009.04,VALID,0,VALID,100.462,VALID,0,VALID,24.532,VALID,54,VALID,0,
2010-07-08, 02:38:05,VALID,1009.05,VALID,0,VALID,100.538,VALID,0,VALID,24.5106,VALID,54,VALID,0,
2010-07-08, 02:39:05,VALID,1009.01,VALID,0,VALID,100.683,VALID,0,VALID,24.5125,VALID,54,VALID,0,
2010-07-08, 02:40:05,VALID,1009.01,VALID,0,VALID,100.774,VALID,0,VALID,24.493,VALID,54,VALID,0,
2010-07-08, 02:41:05,VALID,1008.99,VALID,0,VALID,100.934,VALID,0,VALID,24.493,VALID,54,VALID,0,
2010-07-08, 02:42:05,VALID,1008.97,VALID,0,VALID,100.934,VALID,0,VALID,24.493,VALID,54,VALID,0,
2010-07-08, 02:43:05,VALID,1008.98,VALID,0,VALID,101.026,VALID,0.105969,VALID,24.4717,VALID,54,VALID,0,
2010-07-08, 02:44:05,VALID,1008.99,VALID,0,VALID,101.163,VALID,0,VALID,24.493,VALID,54,VALID,0,
2010-07-08, 02:45:05,VALID,1008.96,VALID,0,VALID,101.171,VALID,0,VALID,24.4735,VALID,54,VALID,0.0152344,
2010-07-08, 02:46:05,VALID,1008.94,VALID,0,VALID,100.927,VALID,0,VALID,24.454,VALID,75,VALID,0.460938,
2010-07-08, 02:47:05,VALID,1008.94,VALID,0,VALID,100.843,VALID,0.105969,VALID,24.454,VALID,78,VALID,0.117578,
2010-07-08, 02:48:05,VALID,1008.89,VALID,0,VALID,100.942,VALID,0,VALID,24.4735,VALID,78,VALID,0.3125,
2010-07-08, 02:49:05,VALID,1008.88,VALID,0,VALID,100.912,VALID,0,VALID,24.4735,VALID,80,VALID,0.203516,
2010-07-08, 02:50:05,VALID,1008.85,VALID,0,VALID,100.866,VALID,0.105969,VALID,24.4522,VALID,132,VALID,0.447656,
2010-07-08, 02:51:05,VALID,1008.84,VALID,0,VALID,100.934,VALID,0,VALID,24.4132,VALID,132,VALID,0,
2010-07-08, 02:52:05,VALID,1008.83,VALID,0,VALID,100.919,VALID,0,VALID,24.415,VALID,132,VALID,0.266406,
2010-07-08, 02:53:05,VALID,1008.87,VALID,0,VALID,100.98,VALID,0,VALID,24.3742,VALID,132,VALID,0.185156,
2010-07-08, 02:54:05,VALID,1008.84,VALID,0,VALID,101.003,VALID,0,VALID,24.3956,VALID,132,VALID,0.203516,
2010-07-08, 02:55:05,VALID,1008.86,VALID,0,VALID,101.011,VALID,0,VALID,24.3566,VALID,108,VALID,0.441406,
2010-07-08, 02:56:05,VALID,1008.85,VALID,0,VALID,100.912,VALID,0,VALID,24.3566,VALID,76,VALID,0.725781,
2010-07-08, 02:57:05,VALID,1008.86,VALID,0,VALID,100.858,VALID,0.105969,VALID,24.3352,VALID,101,VALID,0.891406,
2010-07-08, 02:58:05,VALID,1008.87,VALID,0,VALID,100.812,VALID,0,VALID,24.3566,VALID,101,VALID,0.341016,
2010-07-08, 02:59:05,VALID,1008.86,VALID,0,VALID,100.934,VALID,0,VALID,24.3566,VALID,101,VALID,0.137109,
2010-07-08, 03:00:05,VALID,1008.86,VALID,0,VALID,101.125,VALID,0.105969,VALID,24.3371,VALID,101,VALID,0.434375,
2010-07-08, 03:01:05,VALID,1008.85,VALID,0,VALID,101.117,VALID,0,VALID,24.3176,VALID,101,VALID,0.0425781,
2010-07-08, 03:02:05,VALID,1008.82,VALID,0,VALID,101.156,VALID,0,VALID,24.2981,VALID,129,VALID,0.546484,
2010-07-08, 03:03:05,VALID,1008.81,VALID,0,VALID,101.171,VALID,0,VALID,24.2786,VALID,136,VALID,0.494531,
2010-07-08, 03:04:05,VALID,1008.82,VALID,0,VALID,101.232,VALID,0,VALID,24.2591,VALID,136,VALID,0.184375,
2010-07-08, 03:05:05,VALID,1008.79,VALID,0,VALID,101.255,VALID,0,VALID,24.2378,VALID,136,VALID,0.212109,
2010-07-08, 03:06:05,VALID,1008.83,VALID,0,VALID,101.27,VALID,0,VALID,24.2202,VALID,136,VALID,0.122266,
2010-07-08, 03:07:05,VALID,1008.8,VALID,0,VALID,101.339,VALID,0,VALID,24.1793,VALID,117,VALID,0.240625,
2010-07-08, 03:08:05,VALID,1008.81,VALID,0,VALID,101.484,VALID,0,VALID,24.2007,VALID,34,VALID,0.441016,
2010-07-08, 03:09:05,VALID,1008.83,VALID,0,VALID,101.598,VALID,0,VALID,24.1812,VALID,34,VALID,0.330859,
2010-07-08, 03:10:05,VALID,1008.83,VALID,0,VALID,101.667,VALID,0,VALID,24.1617,VALID,37,VALID,0.466797,
2010-07-08, 03:11:05,VALID,1008.83,VALID,0,VALID,101.674,VALID,0,VALID,24.1422,VALID,55,VALID,0.624609,
2010-07-08, 03:12:05,VALID,1008.87,VALID,0,VALID,101.682,VALID,0,VALID,24.1422,VALID,55,VALID,0.305469,
2010-07-08, 03:13:05,VALID,1008.92,VALID,0,VALID,101.705,VALID,0,VALID,24.1014,VALID,37,VALID,0.518359,
2010-07-08, 03:14:05,VALID,1008.9,VALID,0,VALID,101.735,VALID,0,VALID,24.1227,VALID,37,VALID,0.199219,
2010-07-08, 03:15:05,VALID,1008.93,VALID,0,VALID,101.766,VALID,0,VALID,24.1032,VALID,37,VALID,0.446484,
2010-07-08, 03:16:05,VALID,1008.93,VALID,0,VALID,101.827,VALID,0,VALID,24.1032,VALID,37,VALID,0.388281,
2010-07-08, 03:17:05,VALID,1008.98,VALID,0,VALID,101.865,VALID,0.105969,VALID,24.0624,VALID,37,VALID,0.239063,
2010-07-08, 03:18:05,VALID,1008.99,VALID,0,VALID,101.926,VALID,0,VALID,24.0429,VALID,61,VALID,0.578516,
2010-07-08, 03:19:05,VALID,1008.99,VALID,0,VALID,101.979,VALID,0.105969,VALID,24.0235,VALID,51,VALID,0.4125,
2010-07-08, 03:20:05,VALID,1009.02,VALID,0,VALID,102.017,VALID,0.105969,VALID,24.0429,VALID,51,VALID,0.338281,
2010-07-08, 03:21:05,VALID,1008.99,VALID,0,VALID,102.055,VALID,0.105969,VALID,24.0235,VALID,51,VALID,0.0890625,
2010-07-08, 03:22:05,VALID,1009,VALID,0,VALID,102.101,VALID,0.105969,VALID,24.0235,VALID,51,VALID,0.15,
2010-07-08, 03:23:05,VALID,1009.02,VALID,0,VALID,102.162,VALID,0,VALID,24.004,VALID,51,VALID,0.442187,
2010-07-08, 03:24:05,VALID,1009.02,VALID,0,VALID,102.2,VALID,0.105969,VALID,24.0235,VALID,69,VALID,0.204688,
2010-07-08, 03:25:05,VALID,1009,VALID,0,VALID,102.246,VALID,0.105969,VALID,24.004,VALID,66,VALID,0.164063,
2010-07-08, 03:26:05,VALID,1009.04,VALID,0,VALID,102.269,VALID,0.105969,VALID,24.0253,VALID,66,VALID,0,
2010-07-08, 03:27:05,VALID,1009.02,VALID,0,VALID,102.284,VALID,0.105969,VALID,24.004,VALID,66,VALID,0,
2010-07-08, 03:28:05,VALID,1009.02,VALID,0,VALID,102.284,VALID,0,VALID,24.0253,VALID,66,VALID,0,
2010-07-08, 03:29:05,VALID,1009.05,VALID,0,VALID,102.307,VALID,0,VALID,24.0235,VALID,66,VALID,0,
2010-07-08, 03:30:05,VALID,1009.09,VALID,0,VALID,102.322,VALID,0,VALID,24.0235,VALID,135,VALID,0.01875,
2010-07-08, 03:31:05,VALID,1009.09,VALID,0,VALID,102.353,VALID,0,VALID,24.0429,VALID,135,VALID,0.529297,
2010-07-08, 03:32:05,VALID,1009.14,VALID,0,VALID,102.36,VALID,0.105969,VALID,24.0624,VALID,135,VALID,0.335938,
2010-07-08, 03:33:05,VALID,1009.17,VALID,0,VALID,102.376,VALID,0.105969,VALID,24.0429,VALID,135,VALID,0.457422,
2010-07-08, 03:34:05,VALID,1009.15,VALID,0,VALID,102.36,VALID,0,VALID,24.0643,VALID,135,VALID,0.657031,
2010-07-08, 03:35:05,VALID,1009.17,VALID,0,VALID,102.36,VALID,0,VALID,24.1051,VALID,135,VALID,0.389844,
2010-07-08, 03:36:05,VALID,1009.16,VALID,0,VALID,102.345,VALID,0,VALID,24.0837,VALID,136,VALID,0.580859,
2010-07-08, 03:37:05,VALID,1009.17,VALID,0,VALID,102.322,VALID,0,VALID,24.0448,VALID,151,VALID,0.698828,
2010-07-08, 03:38:05,VALID,1009.13,VALID,0,VALID,102.277,VALID,0,VALID,24.0661,VALID,172,VALID,0.649219,
2010-07-08, 03:39:05,VALID,1009.13,VALID,0,VALID,102.284,VALID,0,VALID,24.0661,VALID,150,VALID,0.894922,
2010-07-08, 03:40:05,VALID,1009.15,VALID,0,VALID,102.299,VALID,0,VALID,24.0466,VALID,134,VALID,0.86875,
2010-07-08, 03:41:05,VALID,1009.13,VALID,0,VALID,102.292,VALID,0,VALID,24.0448,VALID,126,VALID,0.713672,
2010-07-08, 03:42:05,VALID,1009.12,VALID,0,VALID,102.284,VALID,0,VALID,24.0448,VALID,113,VALID,0.314063,
2010-07-08, 03:43:05,VALID,1009.12,VALID,0,VALID,102.299,VALID,0,VALID,24.0448,VALID,113,VALID,0.303906,
2010-07-08, 03:44:05,VALID,1009.12,VALID,0,VALID,102.299,VALID,0,VALID,24.0448,VALID,112,VALID,0.563672,